Weather History for McGuire AFB, NJ

Change the Weather History Date:

Wednesday, December 5, 2012

  Actual Average Record
Temperature  
Mean Temperature 46 °F -  
Max Temperature 57 °F 47 °F 71 °F (1999)
Min Temperature 34 °F 30 °F 21 °F (2006)
Degree Days  
Heating Degree Days 19    
Moisture  
Dew Point 39 °F    
Average Humidity 63    
Maximum Humidity 85    
Minimum Humidity 44    
Precipitation  
Precipitation 0.00 in - - ()
Sea Level Pressure  
Sea Level Pressure 30.05 in    
Wind  
Wind Speed 10 mph (NW)    
Max Wind Speed 17 mph    
Max Gust Speed 23 mph    
Visibility 10 miles    
Events Rain    
Averages and records for this station are not official NWS values.
T = Trace of Precipitation, MM = Missing Value Source: NWS Daily Summary

Daily Weather History Graph

Daily Weather History Graph

Search for Another Location

Airport:

Trip Planner

Search our weather history database for the weather conditions in past years. The results will help you decide how hot, cold, wet, or windy it might be!

Date:

Astronomy

Dec. 05, 2012 Rise Set
Actual Time 7:05 AM EST 4:32 PM EST
Civil Twilight 6:35 AM EST 5:03 PM EST
Nautical Twilight 6:01 AM EST 5:36 PM EST
Astronomical Twilight 5:28 AM EST 6:09 PM EST
Moon 11:19 PM EST (12/5) 11:27 AM EST (12/5)
Length of Visible Light 10h 28m
Length of Day
9h 27m
Waning Gibbous, 60% of the Moon is Illuminated
Dec 5
Waning Gibbous
Dec 6
Last Quarter
Dec 13
New
Dec 20
First Quarter
Dec 28
Full

Hourly Weather History & Observations

Time (EST) Temp. Windchill Dew Point Humidity Pressure Visibility Wind Dir Wind Speed Gust Speed Precip Events Conditions
12:55 AM 54.7 °F - 50.2 °F 85% 29.96 in 10.0 mi SSW 11.5 mph - N/A   Mostly Cloudy
1:55 AM 56.1 °F - 50.5 °F 82% 29.95 in 10.0 mi SSW 9.2 mph - N/A   Overcast
2:55 AM 57.4 °F - 50.2 °F 77% 29.94 in 10.0 mi SW 8.1 mph - N/A   Mostly Cloudy
3:55 AM 57.7 °F - 50.4 °F 76% 29.93 in 10.0 mi WSW 9.2 mph - N/A   Overcast
4:55 AM 57.9 °F - 49.6 °F 74% 29.94 in 10.0 mi West 8.1 mph - N/A   Mostly Cloudy
5:39 AM 57.2 °F - 50.0 °F 77% 29.97 in 10.0 mi NW 6.9 mph - N/A Rain Light Rain
5:49 AM 57.2 °F - 48.2 °F 72% 29.98 in 10.0 mi NNW 9.2 mph - N/A   Mostly Cloudy
5:54 AM 57.2 °F - 48.2 °F 72% 29.98 in 10.0 mi NNW 11.5 mph - N/A   Overcast
5:55 AM 57.0 °F - 48.9 °F 74% 29.98 in 10.0 mi NNW 11.5 mph - 0.00 in   Overcast
5:57 AM 57.2 °F - 48.2 °F 72% 29.98 in 10.0 mi NNW 10.4 mph - N/A   Overcast
6:01 AM 57.2 °F - 48.2 °F 72% 29.98 in 10.0 mi NNW 12.7 mph - N/A Rain Light Rain
6:18 AM 55.4 °F - 48.2 °F 77% 29.98 in 10.0 mi NNW 8.1 mph - N/A   Scattered Clouds
6:55 AM 54.1 °F - 48.0 °F 80% 30.00 in 10.0 mi NNW 6.9 mph - 0.00 in   Mostly Cloudy
6:58 AM 53.6 °F - 48.2 °F 82% 30.00 in 10.0 mi NW 4.6 mph - N/A Rain Light Rain
7:18 AM 53.6 °F - 48.2 °F 82% 30.02 in 10.0 mi NW 6.9 mph - N/A   Scattered Clouds
7:55 AM 54.5 °F - 47.7 °F 78% 30.03 in 10.0 mi NNW 6.9 mph - 0.00 in   Overcast
9:55 AM 54.1 °F - 38.8 °F 56% 30.06 in 10.0 mi NW 12.7 mph - N/A   Scattered Clouds
10:55 AM 53.4 °F - 36.5 °F 53% 30.05 in 10.0 mi NW 17.3 mph - N/A   Clear
11:55 AM 54.0 °F - 36.1 °F 51% 30.04 in 10.0 mi NW 13.8 mph 20.7 mph N/A   Partly Cloudy
12:55 PM 53.6 °F - 35.2 °F 50% 30.04 in 10.0 mi WNW 9.2 mph - N/A   Clear
1:55 PM 54.1 °F - 32.4 °F 44% 30.04 in 10.0 mi NW 13.8 mph 20.7 mph N/A   Clear
2:55 PM 54.3 °F - 33.6 °F 46% 30.04 in 10.0 mi NW 13.8 mph 17.3 mph N/A   Clear
3:55 PM 52.0 °F - 31.5 °F 46% 30.06 in 10.0 mi NW 11.5 mph 23.0 mph N/A   Partly Cloudy
4:55 PM 48.7 °F - 29.1 °F 47% 30.09 in 10.0 mi NW 12.7 mph - N/A   Partly Cloudy
5:55 PM 48.4 °F - 28.9 °F 47% 30.11 in 10.0 mi WNW 11.5 mph - N/A   Mostly Cloudy
6:55 PM 45.7 °F 39.1 °F 28.0 °F 50% 30.16 in 10.0 mi North 15.0 mph 23.0 mph N/A   Overcast
7:55 PM 39.9 °F 31.8 °F 19.8 °F 44% 30.21 in 10.0 mi NNW 15.0 mph 20.7 mph N/A   Clear
8:55 PM 38.7 °F 30.5 °F 18.3 °F 44% 30.22 in 10.0 mi NNW 13.8 mph - N/A   Clear
9:55 PM 36.5 °F 28.7 °F 19.6 °F 50% 30.22 in 10.0 mi NNW 11.5 mph 23.0 mph N/A   Clear
10:55 PM 35.6 °F 29.9 °F 19.6 °F 52% 30.24 in 10.0 mi North 6.9 mph - N/A   Clear
11:55 PM 34.2 °F 25.7 °F 19.4 °F 55% 30.26 in 10.0 mi North 11.5 mph - N/A   Clear